Date String (YYYY-MM-DD hh:mm:ss) UTC,Instrument flags,absolute air pressure of the measurement (hPa),sample flow rate (lpm),inlet stack bypass flow (lpm),air temperature of the measurement (°C),ambient temperature measured by the external sensor (°C),aerosol sample conditioner tube jacket temperature (°C),OPC LED temperature (°C),internal box temperature (°C),relative humidity of the measurement (%),span deviation,mass concentration of particles derived from Lorenz-Mie calculation of OPC scattering (μg/m³),mass concentration of particles derived from Lorenz-Mie calculation of OPC scattering (μg/m³),mass concentration of particles derived from Lorenz-Mie calculation of OPC scattering (μg/m³)
DateTimeUTC,F1_M11,P_M11,Q1_M11,Q2_M11,T1_M11,T2_M11,T3_M11,T4_M11,T5_M11,U1_M11,ZSPAN_M11,X0_M11,X2_M11,X1_M11
2024-01-20 23:00:00,SystemResetWarning,0824.7,5.01,000.00,019.9,019.2,000.0,028.2,021.1,15.0,0001.1,0025.37,0017.48,0016.68
2024-01-20 23:01:00,SystemResetWarning,0824.7,5.01,000.00,019.9,019.2,000.0,028.2,021.1,15.0,0001.1,0025.24,0017.45,0016.66
2024-01-20 23:02:00,SystemResetWarning,0824.7,5.00,000.00,019.9,019.2,000.0,028.2,021.1,15.0,0001.1,0024.33,0017.43,0016.62
2024-01-20 23:03:00,SystemResetWarning,0824.7,4.99,000.00,019.9,019.2,000.0,028.2,021.1,15.0,0001.1,0024.11,0017.49,0016.62
2024-01-20 23:04:00,SystemResetWarning,0824.7,5.00,000.00,019.9,019.2,000.0,028.2,021.1,14.9,0001.0,0023.62,0017.44,0016.59
2024-01-20 23:05:00,SystemResetWarning,0824.7,4.99,000.00,019.9,019.2,000.0,028.2,021.1,15.0,0001.0,0023.62,0017.34,0016.54
2024-01-20 23:06:00,SystemResetWarning,0824.7,5.00,000.00,019.9,019.2,000.0,028.2,021.1,15.0,0001.0,0023.98,0017.31,0016.52
2024-01-20 23:07:00,SystemResetWarning,0824.7,5.00,000.00,019.9,019.2,000.0,028.2,021.1,15.0,0001.2,0024.13,0017.29,0016.50
2024-01-20 23:08:00,SystemResetWarning,0824.7,5.00,000.00,019.9,019.2,000.0,028.2,021.2,15.0,0001.3,0024.66,0017.30,0016.50
2024-01-20 23:09:00,SystemResetWarning,0824.7,5.00,000.00,019.9,019.2,000.0,028.2,021.2,15.0,0001.5,0024.70,0017.32,0016.50
2024-01-20 23:10:00,SystemResetWarning,0824.7,5.00,000.00,019.9,019.2,000.0,028.2,021.2,15.0,0001.5,0024.53,0017.31,0016.49
2024-01-20 23:11:00,SystemResetWarning,0824.7,5.00,000.00,019.9,019.2,000.0,028.2,021.2,14.9,0001.4,0024.32,0017.35,0016.51
2024-01-20 23:12:00,SystemResetWarning,0824.7,5.00,000.00,019.9,019.2,000.0,028.2,021.2,14.9,0001.2,0024.30,0017.38,0016.51
2024-01-20 23:13:00,SystemResetWarning,0824.7,5.01,000.00,019.9,019.2,000.0,028.3,021.2,14.9,0000.8,0024.02,0017.41,0016.53
2024-01-20 23:14:00,SystemResetWarning,0824.6,5.00,000.00,019.9,019.2,000.0,028.3,021.2,14.9,0001.0,0023.71,0017.38,0016.54
2024-01-20 23:15:00,SystemResetWarning,0824.6,5.00,000.00,019.9,019.2,000.0,028.3,021.1,14.9,0001.1,0023.74,0017.39,0016.55
2024-01-20 23:16:00,SystemResetWarning,0824.5,5.00,000.00,019.9,019.2,000.0,028.3,021.2,14.9,0001.2,0023.65,0017.40,0016.57
2024-01-20 23:17:00,SystemResetWarning,0824.5,5.00,000.00,019.9,019.2,000.0,028.3,021.2,14.8,0001.1,0023.51,0017.48,0016.63
2024-01-20 23:18:00,SystemResetWarning,0824.5,5.00,000.00,019.9,019.2,000.0,028.3,021.2,14.8,0001.2,0023.71,0017.55,0016.68
2024-01-20 23:19:00,SystemResetWarning,0824.5,5.00,000.00,020.0,019.2,000.0,028.3,021.2,14.8,0001.2,0023.28,0017.62,0016.74
2024-01-20 23:20:00,SystemResetWarning,0824.4,5.00,000.00,020.0,019.2,000.0,028.3,021.2,14.8,0001.3,0023.33,0017.69,0016.82
2024-01-20 23:21:00,SystemResetWarning,0824.4,5.00,000.00,019.9,019.2,000.0,028.3,021.1,14.8,0001.6,0023.21,0017.75,0016.88
2024-01-20 23:22:00,SystemResetWarning,0824.4,5.00,000.00,019.9,019.2,000.0,028.3,021.2,14.8,0001.6,0023.19,0017.80,0016.93
2024-01-20 23:23:00,SystemResetWarning,0824.3,5.00,000.00,020.0,019.2,000.0,028.3,021.2,14.8,0001.9,0023.48,0017.88,0017.00
2024-01-20 23:24:00,SystemResetWarning,0824.3,5.00,000.00,020.0,019.2,000.0,028.3,021.2,14.9,0002.2,0023.83,0017.94,0017.06
2024-01-20 23:25:00,SystemResetWarning,0824.3,5.00,000.00,020.0,019.2,000.0,028.3,021.2,14.9,0002.2,0024.23,0017.98,0017.10
2024-01-20 23:26:00,SystemResetWarning,0824.4,5.00,000.00,020.0,019.2,000.0,028.3,021.2,14.8,0002.2,0024.62,0018.07,0017.15
2024-01-20 23:27:00,SystemResetWarning,0824.3,5.00,000.00,020.0,019.2,000.0,028.3,021.2,14.8,0002.2,0024.90,0018.17,0017.20
2024-01-20 23:28:00,SystemResetWarning,0824.3,5.00,000.00,020.0,019.2,000.0,028.3,021.2,14.8,0002.4,0024.38,0018.18,0017.21
2024-01-20 23:29:00,SystemResetWarning,0824.3,5.00,000.00,020.0,019.2,000.0,028.3,021.2,14.8,0002.5,0024.07,0018.19,0017.21
2024-01-20 23:30:00,SystemResetWarning,0824.2,5.00,000.00,020.0,019.2,000.0,028.3,021.2,14.8,0002.4,0024.11,0018.21,0017.21
2024-01-20 23:31:00,SystemResetWarning,0824.2,4.99,000.00,020.0,019.2,000.0,028.3,021.1,14.8,0002.3,0024.24,0018.19,0017.17
2024-01-20 23:32:00,SystemResetWarning,0824.3,5.00,000.00,020.0,019.2,000.0,028.3,021.1,14.8,0002.2,0025.14,0018.20,0017.16
2024-01-20 23:33:00,SystemResetWarning,0824.3,5.00,000.00,019.9,019.2,000.0,028.3,021.1,14.9,0001.9,0025.86,0018.23,0017.17
2024-01-20 23:34:00,SystemResetWarning,0824.3,5.00,000.00,019.9,019.1,000.0,028.3,021.1,14.9,0001.8,0025.61,0018.20,0017.15
2024-01-20 23:35:00,SystemResetWarning,0824.2,5.00,000.00,019.9,019.1,000.0,028.3,021.1,14.9,0001.5,0025.25,0018.17,0017.14
2024-01-20 23:36:00,SystemResetWarning,0824.3,5.00,000.00,019.9,019.1,000.0,028.3,021.1,14.9,0001.3,0024.85,0018.16,0017.13
2024-01-20 23:37:00,SystemResetWarning,0824.3,5.00,000.00,019.9,019.1,000.0,028.3,021.1,15.0,0001.5,0024.70,0018.09,0017.11
2024-01-20 23:38:00,SystemResetWarning,0824.4,5.00,000.00,019.9,019.1,000.0,028.3,021.1,15.0,0001.3,0024.62,0017.99,0017.08
2024-01-20 23:39:00,SystemResetWarning,0824.4,5.01,000.00,019.9,019.2,000.0,028.3,021.1,15.1,0001.2,0024.53,0017.93,0017.05
2024-01-20 23:40:00,SystemResetWarning,0824.3,5.01,000.00,019.9,019.2,000.0,028.3,021.1,15.1,0001.1,0024.91,0017.91,0017.04
2024-01-20 23:41:00,SystemResetWarning,0824.3,5.00,000.00,019.9,019.2,000.0,028.3,021.1,15.1,0001.1,0025.68,0017.91,0017.02
2024-01-20 23:42:00,SystemResetWarning,0824.3,4.99,000.00,019.9,019.2,000.0,028.3,021.1,15.1,0001.0,0025.87,0017.93,0017.04
2024-01-20 23:43:00,SystemResetWarning,0824.3,4.99,000.00,019.9,019.2,000.0,028.3,021.2,15.1,0000.7,0025.48,0017.94,0017.03
2024-01-20 23:44:00,SystemResetWarning,0824.3,4.99,000.00,019.9,019.2,000.0,028.3,021.2,15.0,0000.8,0024.50,0017.90,0017.00
2024-01-20 23:45:00,SystemResetWarning,0824.3,5.00,000.00,020.0,019.2,000.0,028.3,021.2,15.0,0001.2,0024.62,0017.94,0016.99
2024-01-20 23:46:00,SystemResetWarning,0824.3,5.01,000.00,020.0,019.2,000.0,028.3,021.2,15.0,0001.4,0024.73,0017.98,0017.00
2024-01-20 23:47:00,SystemResetWarning,0824.3,5.01,000.00,020.0,019.3,000.0,028.3,021.2,15.0,0001.4,0025.20,0017.96,0016.97
2024-01-20 23:48:00,SystemResetWarning,0824.4,5.00,000.00,020.0,019.3,000.0,028.3,021.2,15.0,0001.7,0025.40,0017.94,0016.96
2024-01-20 23:49:00,SystemResetWarning,0824.4,5.01,000.00,020.0,019.3,000.0,028.3,021.3,15.0,0001.7,0025.27,0017.95,0016.96
2024-01-20 23:50:00,SystemResetWarning,0824.3,5.00,000.00,020.0,019.3,000.0,028.3,021.3,15.0,0001.6,0025.32,0017.94,0016.96
2024-01-20 23:51:00,SystemResetWarning,0824.3,4.99,000.00,020.0,019.3,000.0,028.3,021.3,15.0,0001.8,0025.10,0017.91,0016.95
2024-01-20 23:52:00,SystemResetWarning,0824.3,4.99,000.00,020.0,019.3,000.0,028.3,021.3,15.0,0001.7,0024.49,0017.85,0016.92
2024-01-20 23:53:00,SystemResetWarning,0824.3,4.99,000.00,020.0,019.3,000.0,028.3,021.3,14.9,0001.8,0025.32,0017.82,0016.90
2024-01-20 23:54:00,SystemResetWarning,0824.3,5.01,000.00,020.0,019.3,000.0,028.3,021.3,14.9,0002.0,0025.21,0017.78,0016.91
2024-01-20 23:55:00,SystemResetWarning,0824.2,5.01,000.00,020.0,019.3,000.0,028.3,021.3,14.9,0002.1,0026.36,0017.76,0016.91
2024-01-20 23:56:00,SystemResetWarning,0824.1,5.00,000.00,020.0,019.4,000.0,028.4,021.3,14.9,0002.0,0026.79,0017.72,0016.91
2024-01-20 23:57:00,SystemResetWarning,0824.1,4.99,000.00,020.0,019.4,000.0,028.4,021.4,14.9,0002.1,0027.04,0017.69,0016.90
2024-01-20 23:58:00,SystemResetWarning,0824.2,5.00,000.00,020.1,019.4,000.0,028.4,021.4,14.9,0002.3,0027.05,0017.72,0016.90
2024-01-20 23:59:00,SystemResetWarning,0824.1,5.00,000.00,020.1,019.4,000.0,028.4,021.4,14.9,0002.1,0026.73,0017.74,0016.88
